Regional Weather Roundup
Issued by NWS

Home | Current Version | Previous Version | Text Only | Print | Product List | Glossary On
Versions: 1 2 3 4 5 6 7 8 9 10 11 12 13 14 15 16 17 18 19 20 21 22 23 24 25 26 27 28 29 30 31 32 33 34 35 36 37 38 39 40 41 42 43 44 45 46 47 48 49 50
460
ASUS45 KCYS 242310
RWRWY

WYOMING REGIONAL WEATHER ROUNDUP
NATIONAL WEATHER SERVICE CHEYENNE WY
400 PM MST FRI FEB 24 2017

NOTE:  "FAIR" INDICATES FEW OR NO CLOUDS BELOW 12,000 FEET
WITH NO SIGNIFICANT WEATHER AND/OR OBSTRUCTIONS TO VISIBILITY.

WYZ001-250000-
YELLOWSTONE NATIONAL PARK

CITY           SKY/WX    TMP DP  RH WIND       PRES   REMARKS
LK YELLOWSTONE   N/A     15   6  67 VRB5      29.87S WCI   8
W YELLOWSTONE  NOT AVBL

$$
WYZ002>013-054>058-071-098>099-250000-
NORTHERN WYOMING

CITY           SKY/WX    TMP DP  RH WIND       PRES   REMARKS
JACKSON        CLOUDY    19  10  68 S16       29.93R WCI   5
CODY           FLURRIES  28  18  66 N3        29.94S
GREYBULL       CLOUDY    30  20  66 VRB3      29.97S
WORLAND        FAIR      30  20  66 NE3       29.95F
SHERIDAN       PTSUNNY   27  19  72 S12       29.97S WCI  17
BUFFALO        CLOUDY    24  18  77 E6        29.93S WCI  17
GILLETTE       FAIR      27  20  75 S13       29.96S WCI  16
HULETT         CLOUDY    28  21  74 SW12      29.98S WCI  18
NEWCASTLE      MOCLDY    25  18  74 SW7       30.03S WCI  17

$$
WYZ014>020-022>026-101>103-250000-
CENTRAL WYOMING

CITY           SKY/WX    TMP DP  RH WIND       PRES   REMARKS
BIG PINEY      PTSUNNY   16  10  77 CALM      29.92R
PINEDALE       FAIR      19   9  63 W8        29.91S WCI   9
DUBOIS         CLOUDY    19  10  68 CALM      29.83S
LANDER         FAIR      21  14  74 W6        29.91S WCI  13
RIVERTON       FAIR      22  14  71 CALM      29.92S
CASPER         PTSUNNY   21  11  65 SW14      29.94S WCI   8
DOUGLAS        FAIR      19  14  81 SE8       29.98S WCI   9

$$
WYZ021-027>030-104>119-250000-
SOUTHERN WYOMING

CITY           SKY/WX    TMP DP  RH WIND       PRES   REMARKS
EVANSTON       FAIR      16   8  71 SW17      29.96R WCI   0
FORT BRIDGER   FAIR      20  12  70 W20       29.98R WCI   4
ROCK SPRINGS   FAIR      20   8  60 W20       29.93R WCI   4
DIXON            N/A     22  11  60 W7        29.97S WCI  14
RAWLINS        CLOUDY    18  10  71 W10       29.91R WCI   6
SARATOGA       CLOUDY    19  10  68 W12G18    29.92R WCI   7
LARAMIE        CLOUDY    16   9  74 W5        29.85R WCI   9
CHEYENNE       CLOUDY    17  11  77 SW8       29.92R WCI   7
TORRINGTON     FAIR      22  15  75 NE3       30.02S
PINE BLUFFS    CLOUDY    21  14  73 N6        29.99R WCI  14

$$




USA.gov is the U.S. government's official web portal to all federal, state and local government web resources and services.